Location: Ammerl�gen
(47.2167°N, 9.6000°E)
Time: 04:44:19
(UTC+00:00)

Cosmos 2084 Rocket - Pass Details

Date: 21 April 2021
Orbit: 524 x 656 km, 62.8° (Epoch: 16 May)

Event Time Altitude Azimuth Distance (km) Brightness Sun altitude
Rises 20:47:32 0° 230° (SW) 2,648 6.8 -21.6°
Reaches altitude 10° 20:49:44 10° 235° (SW) 1,767 5.9 -21.8°
Maximum altitude 20:53:38 58° 315° (NW) 628 3.8 -22.2°
Drops below altitude 10° 20:57:39 10° 35° (NE) 1,819 6.1 -22.6°
Sets 20:59:56 0° 39° (NE) 2,735 7.0 -22.9°
